Location: Ikejouine
(32.5142°N, 5.4699°W)
Time: 16:52:52
(UTC+00:00)

Nadezhda 1 Rocket - Pass Details

Date: 09 April 2020
Orbit: 940 x 1006 km, 83.0° (Epoch: 26 May)

Event Time Altitude Azimuth Distance (km) Brightness Sun altitude
Rises 19:12:15 0° 163° (SSE) 3,718 6.7 -5.9°
Reaches altitude 10° 19:14:57 10° 156° (SSE) 2,772 6.0 -6.4°
Maximum altitude 19:20:47 39° 89° (E) 1,454 4.5 -7.6°
Drops below altitude 10° 19:26:37 10° 23° (NNE) 2,768 6.3 -8.8°
Sets 19:29:17 0° 16° (NNE) 3,712 7.0 -9.4°
